| time (UTC) | temp F | wind direction | speed MPH | gust MPH | rain 1hr in | rain 24hr in | rain mn in | humidity % | barometer mb |
| 20260504130527 | 53 | 0 | 0.0 | 2.0 | 0.05 | 0.32 | 0.32 | 94 | 974.3 |
| 20260504110526 | 53 | 0 | 0.0 | 0.0 | 0.08 | 0.23 | 0.22 | 92 | 974.5 |
| 20260504081856 | 54 | 0 | 0.0 | 0.0 | 0.00 | 0.03 | 0.03 | 88 | 974.0 |
| 20260504050507 | 54 | 0 | 0.0 | 0.0 | 0.00 | 0.00 | 0.00 | 77 | 973.4 |
| 20260504043507 | 55 | 0 | 0.0 | 0.0 | 0.00 | 0.00 | 0.00 | 76 | 972.9 |
| 20260504041855 | 55 | 0 | 0.0 | 0.0 | 0.00 | 0.00 | 0.00 | 74 | 972.9 |
| 20260504033508 | 55 | 174 | 0.0 | 1.0 | 0.00 | 0.00 | 0.00 | 73 | 973.1 |
| 20260504030507 | 56 | 0 | 0.0 | 1.0 | 0.00 | 0.00 | 0.00 | 73 | 973.0 |
| 20260504023505 | 56 | 0 | 0.0 | 5.0 | 0.00 | 0.00 | 0.00 | 70 | 973.2 |
| 20260504020504 | 56 | 0 | 0.0 | 0.0 | 0.00 | 0.00 | 0.00 | 69 | 973.3 |
| 20260504013504 | 56 | 148 | 0.0 | 0.0 | 0.00 | 0.00 | 0.00 | 69 | 973.3 |
| 20260504010504 | 56 | 185 | 0.0 | 0.0 | 0.00 | 0.00 | 0.00 | 69 | 973.3 |
| 20260504003504 | 56 | 0 | 0.0 | 1.0 | 0.00 | 0.00 | 0.00 | 67 | 973.4 |
| 20260504000508 | 56 | 0 | 0.0 | 2.0 | 0.00 | 0.00 | 0.00 | 68 | 973.7 |
| 20260503233503 | 56 | 0 | 0.0 | 9.0 | 0.00 | 0.00 | 0.00 | 67 | 973.9 |
| 20260503230503 | 57 | 0 | 0.0 | 9.0 | 0.00 | 0.00 | 0.00 | 66 | 974.0 |
| 20260503223504 | 57 | 0 | 0.0 | 9.0 | 0.00 | 0.00 | 0.00 | 65 | 974.1 |
| 20260503220504 | 57 | 0 | 0.0 | 13.0 | 0.00 | 0.00 | 0.00 | 65 | 974.0 |
| 20260503214847 | 58 | 0 | 0.0 | 10.0 | 0.00 | 0.00 | 0.00 | 66 | 974.2 |
| 20260503210502 | 57 | 0 | 0.0 | 13.0 | 0.00 | 0.00 | 0.00 | 66 | 974.2 |
| 20260503203505 | 57 | 0 | 0.0 | 4.0 | 0.00 | 0.00 | 0.00 | 65 | 974.3 |
| 20260503200503 | 57 | 0 | 0.0 | 4.0 | 0.00 | 0.00 | 0.00 | 65 | 974.1 |
| 20260503193503 | 58 | 0 | 0.0 | 0.0 | 0.00 | 0.00 | 0.00 | 63 | 973.8 |
| 20260503190502 | 60 | 0 | 0.0 | 4.0 | 0.00 | 0.00 | 0.00 | 61 | 973.7 |
| 20260503183503 | 62 | 0 | 0.0 | 1.0 | 0.00 | 0.00 | 0.00 | 60 | 973.5 |
| 20260503183228 | 63 | 0 | 0.0 | 6.0 | 0.00 | 0.00 | 0.00 | 58 | 973.6 |
| 20260503174854 | 63 | 183 | 0.0 | 10.0 | 0.00 | 0.00 | 0.00 | 57 | 973.5 |
| 20260503170517 | 64 | 0 | 0.0 | 11.0 | 0.00 | 0.00 | 0.00 | 56 | 973.8 |
| 20260503150500 | 62 | 0 | 0.0 | 12.0 | 0.00 | 0.00 | 0.00 | 61 | 974.7 |